User: anonymous   Login
Location: Bittelbronn
(48.4454°N, 8.5870°E)
Time: 08:31:10
(UTC+00:00)
Language:

ADEOS II - Orbit

View from above orbital plane
View from above orbital plane
View from above satellite
View from above satellite

Ground track
Ground track

The orbit data is extracted from the following two-line orbital elements,

1 27597U 02056A   24202.87098571  .00000809  00000-0  34130-3 0  9999
2 27597  98.6927 149.4233 0000761  30.9077 329.2148 14.28418676125047
Epoch (UTC): 20 July 2024 20:54:13
Eccentricity: 0.0000761
inclination: 98.6927°
perigee height: 796 km
apogee height: 797 km
right ascension of ascending node: 149.4233°
argument of perigee: 30.9077°
revolutions per day: 14.28418676
mean anomaly at epoch: 329.2148°
orbit number at epoch: 12504

The dashed part of the orbit path shows where the satellite is in the earth's shadow,  

DLR